Погода в Кругликове

Россия / Хабаровский край     48°06′17″N   135°07′20″E
темп.,
°C
ветер,
м/с
пор.,
м/с
влажн.,
%
обл.,
%
осадки,
мм/ч
давл.,
гПа
погр.,
м
18 октября, пн
пн1801:00−4зюз365134 0.0 1019120
04:00−5зюз365112 0.0 1019132
07:00−5юз235474 0.0 102054
10:00−1зюз35418 0.0 1022537
13:00+2зюз35315 0.0 10211711
16:00+3з35309 0.0 10201787
19:00−2зсз22465 0.0 102210
22:00−3ссз11490 0.0 102310
19 октября, вт
вт1901:00−4юз12500 0.0 102410
04:00−5зюз22510 0.0 102421
07:00−5зюз22520 0.0 102427
10:000з34320 0.0 1025500
13:00+2з45250 0.0 10231416
16:00+3з45250 0.0 10211505
19:00−3з32410 0.0 102218
22:00−4юз33460 0.0 102231
20 октября, ср
ср2001:00−5юз33505 0.0 102146
04:00−4юз3454100 0.0 102082
07:00−4юз3453100 0.0 102085
10:000юз334031 0.0 1021371
13:00+4зсз333480 0.0 10191198
16:00+5с223335 0.0 10181284
19:00−1св335311 0.0 102031
22:00−2св11535 0.0 102010
21 октября, чт
чт2101:00−3юз01550 0.0 102010
04:00−3юз11580 0.0 102010
07:00−4ююз22610 0.0 102024
10:00+1юз35450 0.0 1020342
13:00+6юз56390 0.0 1018979
16:00+7зюз574152 0.0 10171147
19:00+1юз34607 0.0 101742
22:000зюз357112 0.0 101777
22 октября, пт
пт2201:00−1зюз36754 0.0 1018100
04:00−1зюз47790 0.0 1018118
07:00−2зюз48820 0.0 1019131
10:00+3зюз56590 0.0 1019354
13:00+8зюз57410 0.0 10181100
16:00+9з69392 0.0 10171297
19:00+4зюз410575 0.0 1018161
22:00+3зюз496286 0.0 1018184